Location: ?ernice
(48.8383°N, 14.3803°E)
Time: 04:07:47
(UTC+00:00)

Daily predictions for brighter satellites

Satellite Brightness Start Highest point End
(mag) Time Altitude Azimuth Time Altitude Azimuth Time Altitude Azimuth
Cosmos 1315 Rocket 4.1 00:04:20 24° SE 00:05:41 30° E 00:09:09 10° NNE
Cosmos 2228 Rocket 3.4 00:05:20 38° SW 00:06:43 55° WNW 00:11:10 10° N
Meteor 1-21 4.2 00:04:42 34° SSW 00:07:16 85° W 00:13:03 10° N
Helios 1A Rocket 2.6 00:07:43 49° S 00:08:42 79° WSW 00:12:34 10° NNW
Cosmos 2082 Rocket 2.2 00:07:01 34° SSW 00:09:40 90° NW 00:15:26 10° NNE
Cosmos 1833 Rocket 4.0 00:08:09 14° WSW 00:12:18 33° NW 00:17:22 10° NNE
SL-16 R/B 4.5 00:07:52 10° ESE 00:12:57 27° NE 00:18:04 10° N
BREEZE-M DEB (TANK) 3.8 00:13:11 31° WSW 00:14:25 41° SSW 00:22:49 10° SE
CZ-2D R/B 3.6 00:12:55 10° NE 00:17:38 29° E 00:21:24 14° SSE
Cosmos 1908 Rocket 3.7 00:15:42 10° N 00:20:09 72° E 00:22:20 29° SSE
Cosmos 2360 Rocket 3.8 00:16:34 10° NNW 00:21:47 35° NE 00:26:58 10° ESE
USA 267 3.6 00:16:53 10° NE 00:23:21 66° NNW 00:29:49 10° WSW
DELTA 2 R/B (1) 4.2 00:26:16 31° S 00:26:48 32° S 00:31:40 10° ESE
Cosmos 1455 1.9 00:26:43 10° N 00:30:11 77° E 00:31:18 40° SSE
Cosmos 1733 Rocket 4.1 00:27:06 10° NNW 00:30:54 30° W 00:31:55 27° WSW
Cosmos 841 Rocket 3.4 00:27:11 10° NNW 00:32:27 90° SW 00:36:21 18° SSE
Resurs 1-4 Rocket 3.1 00:27:33 10° NNE 00:32:27 38° E 00:36:00 17° SSE
Cosmos 1400 Rocket 4.2 00:32:16 23° WSW 00:33:35 28° WNW 00:37:04 10° N
H-2A R/B 4.3 00:33:38 10° NNW 00:36:26 17° WNW 00:38:59 11° W
Cosmos 2278 3.6 00:36:05 10° NNW 00:41:50 79° WSW 00:46:48 14° SSE
H-2A R/B 3.9 00:37:58 10° NNE 00:41:53 52° E 00:43:49 26° SSE
Cosmos 1346 Rocket 3.7 00:41:12 10° NNW 00:44:36 29° W 00:45:17 28° WSW
COBE Rocket 4.1 00:40:21 10° NNE 00:45:13 66° E 00:48:15 24° S
Cosmos 676 Rocket 4.2 00:42:47 27° SW 00:45:40 64° WNW 00:50:59 10° NNE
Okean 2 3.6 00:49:49 33° SW 00:51:19 54° WNW 00:55:14 10° N
CZ-2C R/B 2.8 00:47:46 11° SSE 00:52:38 71° ENE 00:57:49 10° N
Cosmos 1745 Rocket 4.0 00:48:37 23° S 00:52:39 86° W 00:59:00 10° N
Meteor 1-4 Rocket 2.2 00:53:08 46° SW 00:53:43 59° WNW 00:56:40 10° N
Cosmos 2333 Rocket 3.1 00:49:05 10° NNW 00:54:41 52° NE 01:00:16 10° SE
Cosmos 2242 Rocket 4.4 00:53:26 17° SSE 00:56:31 47° E 01:00:51 10° NNE
Cosmos 2322 Rocket 2.4 00:53:54 10° NNW 00:59:35 75° ENE 01:05:15 10° SSE
USA 234 3.9 00:56:30 18° S 01:00:32 32° SW 01:06:18 10° WNW
Cosmos 1703 Rocket 3.7 00:58:54 28° SSW 01:01:07 63° WNW 01:05:33 10° N
BREEZE-M R/B 4.5 00:59:28 22° SSW 01:02:42 46° SE 01:17:42 10° ENE
Cosmos 1953 3.0 01:00:26 10° NNW 01:04:02 35° W 01:05:20 27° SW
SL-8 R/B 4.2 01:01:50 10° W 01:06:09 34° SSW 01:10:27 10° SSE
NPP 3.6 01:01:22 10° NNE 01:06:48 89° ESE 01:10:33 21° SSW
SL-27 R/B 3.7 01:08:51 16° SSE 01:10:15 24° ESE 01:12:36 10° NE
Cosmos 1980 Rocket 3.8 01:09:21 10° WNW 01:12:42 16° W 01:14:01 15° WSW
Nadezhda 1 Rocket 4.4 01:07:41 10° NNW 01:13:50 50° W 01:18:17 19° SSW
Cosmos 1242 Rocket 1.9 01:13:25 33° S 01:14:34 82° ESE 01:17:28 10° NNE
SL-4 R/B 4.4 01:12:38 10° SSE 01:14:42 13° SE 01:16:47 10° ESE
Cosmos 1300 Rocket 3.5 01:12:58 10° NNW 01:17:17 69° W 01:20:24 18° S
ADEOS II 2.5 01:14:25 10° NNE 01:19:38 61° ESE 01:24:13 13° S
Cosmos 1408 2.0 01:21:25 25° S 01:23:00 79° E 01:25:59 10° NNE
COSMOS 2406 4.3 01:19:32 14° WSW 01:24:02 36° NW 01:29:21 10° NNE
IDEFIX/ARIANE 42P 2.7 01:19:24 10° N 01:24:38 65° WNW 01:28:28 18° SSW
Lacrosse 5 rocket 1.6 01:22:14 10° WNW 01:26:05 41° SW 01:29:46 10° SSE
Cosmos 839 Rocket 4.3 01:19:53 10° NW 01:27:23 82° NE 01:33:41 10° SE
ALOS 3.3 01:23:02 10° NNE 01:27:24 40° E 01:31:45 10° SSE
EXPRESS MD2 3.3 01:27:55 26° SSW 01:29:17 48° SSE 01:33:36 10° ENE
COSMOS 2441 4.3 01:30:27 10° NNE 01:35:17 85° WNW 01:39:15 15° SSW
Cosmos 405 Rocket 4.2 01:34:42 10° N 01:38:02 35° ENE 01:41:24 10° SE
ATLAS 2AS CENTAUR R/B 3.0 01:34:28 10° NW 01:41:23 70° NE 01:48:00 10° SE
Cosmos 1315 Rocket 4.2 01:39:37 15° WSW 01:41:52 24° WNW 01:45:07 10° NNW
CZ-2C R/B 3.4 01:37:19 10° NNE 01:43:10 80° WNW 01:48:26 12° SSW
SJ 16-02 1.3 01:39:50 16° SSW 01:43:16 86° ESE 01:47:37 10° NNE
SL-16 R/B 2.8 01:38:37 10° NW 01:43:45 36° WSW 01:48:50 10° S
UNK 4.0 01:44:07 10° SSE 01:48:44 73° ENE 01:53:22 10° N
Cosmos 2333 4.2 01:45:15 10° NNW 01:51:00 83° WSW 01:56:46 10° SSE
Cosmos 2082 Rocket 4.0 01:50:12 10° W 01:54:33 22° NW 01:58:56 10° N
SL-16 R/B 2.6 01:49:49 10° S 01:56:02 69° WSW 02:02:20 10° NNW
Cosmos 2219 Rocket 2.3 01:51:33 10° NNW 01:57:15 84° ENE 02:02:55 10° SSE
Cosmos 2181 Rocket 4.1 01:51:19 10° NNW 01:57:39 67° W 02:03:50 10° S
CZ-2D R/B 2.7 01:52:35 10° N 01:57:51 49° WNW 02:02:42 12° SW
Cosmos 1703 3.4 02:00:01 13° SSW 02:03:14 52° WNW 02:06:54 10° N
Meteor 1-28 Rocket 3.5 01:59:53 10° S 02:03:17 41° W 02:06:42 10° NNW
AQUA 3.9 01:59:29 10° N 02:04:12 67° WNW 02:08:52 10° SSW
COSMOS 2428 3.7 02:00:01 10° NNW 02:05:35 52° NE 02:11:06 10° SE
USA 267 4.3 01:59:44 10° ENE 02:05:51 44° N 02:11:58 10° WNW
Cosmos 2360 Rocket 2.5 02:00:31 10° NW 02:05:57 47° WSW 02:11:21 10° S
Cosmos 968 Rocket 3.9 02:02:10 12° SW 02:06:41 49° WNW 02:11:41 10° NNE
Genesis I 3.2 02:05:37 13° SW 02:08:43 62° NW 02:12:16 10° NE
Meteor 1-24 Rocket 4.0 02:03:05 10° SSW 02:09:05 71° WNW 02:15:06 10° N
RESURS DK-1 2.5 02:06:13 10° NW 02:10:10 50° WSW 02:14:05 10° S
Resurs 1-4 Rocket 3.0 02:07:28 10° N 02:12:12 35° WNW 02:16:55 10° SW
SAR-Lupe-4 3.6 02:11:12 10° N 02:14:47 67° WNW 02:18:18 10° SSW
Cosmos 2237 Rocket 4.4 02:14:40 10° NNW 02:19:45 32° NE 02:24:47 10° ESE
FENGYUN 3A 4.1 02:16:37 10° N 02:21:46 47° WNW 02:26:53 10° SW
IRAS Rocket 4.3 02:16:54 10° NNE 02:22:25 72° WNW 02:27:51 10° SSW
Geosat 4.0 02:25:58 10° SSE 02:30:56 65° WSW 02:35:57 10° NW
CZ-2C R/B 4.1 02:30:02 10° SW 02:33:28 18° W 02:36:55 10° NW
Cosmos 2221 Rocket 3.7 02:29:43 10° SSW 02:34:13 65° WNW 02:38:45 10° N
ASTEX 1 3.7 02:29:53 10° SSE 02:34:48 75° E 02:39:43 10° N
